Regional Weather Roundup
Issued by NWS

Home | Current Version | Previous Version | Text Only | Print | Product List | Glossary Off
Versions: 1 2 3 4 5 6 7 8 9 10 11 12 13 14 15 16 17 18 19 20 21 22 23 24 25 26 27 28 29 30 31 32 33 34 35 36 37 38 39 40 41 42 43 44 45 46 47 48 49 50

000
ASUS43 KMKX 201300
RWRWI

WISCONSIN REGIONAL WEATHER ROUNDUP
NATIONAL WEATHER SERVICE MILWAUKEE/SULLIVAN WI
800 AM CDT THU JUL 20 2017

NOTE: "FAIR" INDICATES FEW OR NO CLOUDS BELOW 12,000 FEET WITH NO
SIGNIFICANT WEATHER AND/OR OBSTRUCTIONS TO VISIBILITY.

WIZ001-002-006>008-014>016-023>028-201400-
NORTHWEST WISCONSIN

CITY           SKY/WX    TMP DP  RH WIND       PRES   REMARKS
SUPERIOR ARPT  NOT AVBL
ASHLAND        SUNNY     67  62  84 W7        29.96R
HAYWARD        CLOUDY    64  62  93 S3        30.00R
SIREN          CLOUDY    66  64  90 CALM      30.00R
CUMBERLAND     CLOUDY    63  61  94 CALM      30.01S FOG
RICE LAKE      CLOUDY    64  63  97 CALM      30.02F FOG
CHETEK         CLOUDY    65  64  97 CALM      30.00F
LADYSMITH      CLOUDY    66  64  96 CALM      30.02S
EAU CLAIRE     CLOUDY    69  69 100 CALM      29.99S FOG
MENOMONIE      FOG       68  68  99 CALM      30.01R VSB<1/4
NEW RICHMOND   FOG       65  65 100 CALM      30.01R VSB 1/4
OSCEOLA        FOG       64  64 100 CALM      30.02F VSB<1/4
$$

WIZ003>005-009-010-017-018-201400-
NORTH CENTRAL WISCONSIN

CITY           SKY/WX    TMP DP  RH WIND       PRES   REMARKS
MANITOWISH WTR SUNNY     64  64  99 NW5       29.97F
ARBOR VITAE    SUNNY     65  62  89 W6        29.99R
WOODRUFF       SUNNY     65  62  89 W6        29.99R
RHINELANDER    SUNNY     68  62  81 W8        30.01R
EAGLE RIVER    SUNNY     65  62  89 CALM      29.97F
LAND O LAKES   SUNNY     66  60  80 NW5       29.99F
PHILLIPS       CLOUDY    66  64  91 W5        30.00S
TOMAHAWK         N/A     64  62  95 CALM      30.01R
MEDFORD        CLOUDY    67  65  92 W5        30.01S
MERRILL        PTSUNNY   67  65  93 W8        30.01R
$$

WIZ029-030-035-036-043>047-201400-
CENTRAL WISCONSIN

CITY           SKY/WX    TMP DP  RH WIND       PRES   REMARKS
WAUSAU         MOSUNNY   71  66  84 W9        29.99S
MOSINEE        CLOUDY    70  66  88 W8        30.01S
MARSHFIELD     CLOUDY    69  66  90 W6        30.01R
STEVENS POINT  CLOUDY    66  66 100 W6        30.01S FOG
WAUPACA        CLOUDY    73  70  88 W5        29.99S
WAUTOMA        MOSUNNY   72  68  87 SW7       29.99S
WISC RAPIDS    CLOUDY    70  68  93 W6        30.01S
CAMP DOUGLAS   NOT AVBL
$$

WIZ011>013-019>022-031-037>040-048>050-201400-
NORTHEAST WISCONSIN

CITY           SKY/WX    TMP DP  RH WIND       PRES   REMARKS
ANTIGO         CLOUDY    67  64  91 W10       30.01S
SHAWANO        CLOUDY    73  67  80 W8        29.98R
OCONTO         MOSUNNY   72  67  82 W9        29.96R
STURGEON BAY     N/A     72  67  84 W14       29.97R
GREEN BAY      PTSUNNY   73  70  90 W10       29.97S
MANITOWOC      NOT AVBL
APPLETON       MOSUNNY   72  68  88 W9        29.97F
CLINTONVILLE   CLOUDY    70  66  88 W8        30.00R
OSHKOSH        CLOUDY    70  66  87 W7        29.98R
$$

WIZ032>034-041-042-053>061-201400-
SOUTHWEST WISCONSIN

CITY           SKY/WX    TMP DP  RH WIND       PRES   REMARKS
LA CROSSE      PTSUNNY   73  69  87 S7        29.98R
SPARTA         PTSUNNY   66  65  97 CALM      30.00R
VIROQUA        PTSUNNY   67  67 100 CALM      30.01R
BOSCOBEL       CLOUDY    71  67  87 CALM      29.98F
PRAIRIE DU CHI CLOUDY    68  67  96 SE3       29.97F
PLATTEVILLE    CLOUDY    69  69 100 SE9       30.00F
$$

WIZ056-057-062-063-064-067-068-201400-
SOUTH CENTRAL WISCONSIN

CITY           SKY/WX    TMP DP  RH WIND       PRES   REMARKS
REEDSBURG      MOSUNNY   68  68 100 SW3       29.99S
BARABOO/DELLS  MOSUNNY   68  66  93 CALM      30.00R
LONE ROCK      NOT AVBL
MINERAL POINT  CLOUDY    68  68 100 SE7       30.01S
MADISON        CLOUDY    71  68  90 S7        29.98S
MIDDLETON      CLOUDY    70  69  97 S6        29.99F
WATERTOWN      CLOUDY    69  69 100 SW3       29.98R
MONROE         CLOUDY    68  66  94 S8        30.00S
JANESVILLE     PTSUNNY   70  70 100 S6        29.99R
$$

WIZ051-052-058>065-066-070>072-201400-
SOUTHEAST WISCONSIN

CITY           SKY/WX    TMP DP  RH WIND       PRES   REMARKS
MILWAUKEE      CLOUDY    71  66  84 S12       29.95F
WAUKESHA       MOSUNNY   66  64  94 S9        29.98F
MILWAUKEE/TIMM SUNNY     70  63  78 S7        29.95S
RACINE         CLOUDY    69  66  90 S15G23    29.97F
KENOSHA        CLOUDY    68  65  90 SE9       29.97F
FOND DU LAC    CLOUDY    71  65  81 W6        29.99R
SHEBOYGAN      CLOUDY    71  69  93 NW7       29.98R
WEST BEND      CLOUDY    70  66  88 NW6       29.97R
JUNEAU         CLOUDY    68  66  93 CALM      30.00R
$$

LSZ147-162-201400-
LAKE SUPERIOR

STATION/POSITION TIME  TEMP    WIND        PRES    WAVE
                       AIR SEA DIR/SP/G            HT/PER
                 (UTC) (F)     (DEG/KT/KT) (MB)    (FT/S)
W MID LAKE BUOY  1150   50 47  260/  8/  8 1012.8R   0
DEVILS ISLAND    1200   59     240/ 13/ 15 1013.5R
PORT WING        1220   63     180/  2/ 10 1014.2
SAXON HARBOR     1230   67     190/  7/ 10 1013.9R
$$

LMZ867-665-643>646-201400-
LAKE MICHIGAN

STATION/POSITION TIME  TEMP    WIND        PRES    WAVE
                       AIR SEA DIR/SP/G            HT/PER
                 (UTC) (F)     (DEG/KT/KT) (MB)    (FT/S)
CHAMBERS ISLAND  1240   69     240/  6/ 10 1013.5S
S GREEN BAY BUOY 1230   72 71  230/ 12/ 16 1014.1R
N MID LAKE BUOY  1150   67 64  220/ 12/ 14 1013.0R   1
NORTHPORT PIER   1240   70     260/  7/ 14 1013.5R
KEWAUNEE LAKESHO 1230   72     280/  8/ 14 1013.5F
SHEBOYGAN LAKESH 1200   69     280/  3/  4 1014.0F
PORT WASHINGTON  1230   70      80/  3/  4 1014.6F
ATWATER BUOY     1109   69 68  200/  8/ 10 1016.6F
MILWAUKEE LAKESH 1230   70     180/ 12/ 13   N/A
S MID LAKE BUOY  1150   69 69  290/ 12/ 14 1017.0R   2/ 4
KENOSHA   LAKESH 1200   68     190/  5/  6 1016.9
$$

TC  - TEMPERATURE IN CELSIUS
VSB - VISIBILITY IN STATUTE MILES
WCI - WIND CHILL INDEX
HX  - HEAT INDEX





USA.gov is the U.S. government's official web portal to all federal, state and local government web resources and services.